CDT,Max TemperatureF,Mean TemperatureF,Min TemperatureF,Max Dew PointF,MeanDew PointF,Min DewpointF,Max Humidity, Mean Humidity, Min Humidity, Max Sea Level PressureIn, Mean Sea Level PressureIn, Min Sea Level PressureIn, Max VisibilityMiles, Mean VisibilityMiles, Min VisibilityMiles, Max Wind SpeedMPH, Mean Wind SpeedMPH, Max Gust SpeedMPH,PrecipitationIn, CloudCover, Events, WindDirDegrees
2012-5-1,77,64,54,65,58,52,100,88,67,29.97,29.85,29.75,10,7,1,16,9,24,0.74,5,Rain-Thunderstorm,145
2012-5-2,84,73,62,69,62,59,88,73,49,29.96,29.84,29.74,10,10,10,18,11,26,0.01,3,Rain-Thunderstorm,154
2012-5-3,82,76,69,70,66,63,81,74,63,29.97,29.87,29.81,10,10,10,22,11,37,0.00,2,,188
2012-5-4,77,70,62,66,63,59,94,82,64,29.98,29.89,29.83,10,10,3,25,10,36,0.34,3,Rain-Thunderstorm,141
2012-5-5,86,76,66,72,68,63,90,75,57,29.90,29.87,29.83,10,10,8,10,6,,0.00,2,,119
2012-5-6,87,78,69,71,68,62,94,77,53,29.88,29.85,29.74,10,7,2,13,7,23,0.00,0,Thunderstorm,179
2012-5-7,72,64,57,63,58,49,94,79,53,29.95,29.90,29.79,10,9,2,18,9,24,0.01,6,Rain,334
2012-5-8,72,64,54,50,44,38,83,54,31,30.00,29.96,29.93,10,10,10,20,9,26,0.00,2,,295
2012-5-9,69,58,48,48,45,43,82,62,40,30.01,29.97,29.93,10,10,10,17,7,25,0.00,2,,306
2012-5-10,73,60,48,47,44,41,80,54,33,30.02,29.97,29.93,10,10,10,8,4,,0.00,0,,142
2012-5-11,78,66,55,54,49,44,72,54,40,30.12,30.07,30.00,10,10,10,14,9,18,0.00,1,,177
2012-5-12,71,65,59,57,56,53,90,74,61,30.21,30.18,30.12,10,10,6,16,7,,0.00,4,,359
2012-5-13,75,62,52,55,43,37,90,52,26,30.24,30.18,30.12,10,10,6,15,9,22,0.00,1,,16
2012-5-14,78,64,51,50,41,34,75,45,21,30.14,30.09,30.03,10,10,10,8,3,,0.00,0,,304
2012-5-15,82,67,52,52,48,41,75,51,31,30.04,29.98,29.90,10,10,9,14,8,21,0.00,0,,232
2012-5-16,75,64,54,51,44,37,66,47,26,30.09,30.03,29.94,10,10,10,13,7,16,0.00,0,,37
2012-5-17,78,64,51,44,37,32,53,38,21,30.11,30.05,29.98,10,10,10,10,7,,0.00,0,,136
2012-5-18,84,69,54,55,48,39,59,44,28,30.01,29.95,29.89,10,10,10,13,8,22,0.00,0,,153
2012-5-19,87,76,64,61,57,52,68,52,37,29.99,29.94,29.91,10,10,10,18,9,25,0.00,0,,165
2012-5-20,84,74,61,64,59,49,65,56,45,30.12,30.02,29.95,10,10,10,18,12,22,0.00,2,Thunderstorm,254
2012-5-21,73,62,51,47,41,37,77,49,28,30.20,30.15,30.10,10,10,10,16,10,28,0.00,0,,354
2012-5-22,79,64,51,50,45,39,80,50,29,30.09,30.00,29.87,10,10,10,8,3,,0.00,0,,176
2012-5-23,82,70,59,52,48,44,62,46,34,29.87,29.77,29.65,10,10,10,17,9,24,0.00,0,,161
2012-5-24,90,79,69,65,54,45,68,42,27,29.72,29.60,29.51,10,10,2,23,15,36,0.00,1,,184
2012-5-25,84,74,64,64,58,55,84,58,40,30.00,29.92,29.76,10,10,10,12,7,16,0.00,3,,61
2012-5-26,91,80,71,71,68,63,84,66,50,30.01,29.96,29.91,10,10,8,12,7,17,0.00,1,,161
2012-5-27,91,82,72,68,62,57,69,50,32,29.95,29.88,29.77,10,10,10,17,11,26,0.00,0,,192
2012-5-28,90,81,73,70,64,58,83,58,42,29.82,29.77,29.72,10,9,2,26,14,36,0.09,2,Rain-Thunderstorm,212
2012-5-29,84,72,61,56,50,41,75,46,22,29.91,29.88,29.84,10,10,10,18,7,18,0.00,1,,331
2012-5-30,77,65,55,47,45,44,72,49,33,29.99,29.93,29.86,10,10,4,13,8,18,0.00,0,,354
2012-5-31,62,56,51,50,47,42,94,77,50,29.94,29.86,29.76,10,8,2,20,13,25,0.10,7,Rain,48